#�ϑ�����,���ϕ���,���ϕ���,�ő啗��,�ő啗����������,�ő�u�ԕ���,�ő�u�ԕ�����������
#(�N����),(m/s)   ,(16����),(m/s)   ,(16����)        ,(m/s)       ,(16����)            
2015/7/13 9:06,1.9,6,2.2,6,3.2,8
2015/7/13 9:07,1.9,6,4.4,7,8.1,7
2015/7/13 9:08,1.9,6,4.5,7,8.9,8
2015/7/13 9:09,1.9,6,4.3,7,7.7,7
2015/7/13 9:10,4.4,7,4.4,7,9.5,6
2015/7/13 9:11,4.5,7,4.5,7,7.1,5
2015/7/13 9:12,4.4,7,4.6,7,10,7
2015/7/13 9:13,4.9,7,4.9,7,11.3,7
2015/7/13 9:14,5.1,7,5.1,7,10.3,7
2015/7/13 9:15,5,7,5.1,7,7,6
2015/7/13 9:16,4.9,7,5,7,8.2,8
2015/7/13 9:17,4.9,7,5,7,7.2,6
2015/7/13 9:18,4.8,7,4.9,7,7.4,6
2015/7/13 9:19,4.9,7,4.9,7,7.5,7
2015/7/13 9:20,4.8,7,5,7,6.1,7
2015/7/13 9:21,4.7,7,4.8,7,6.2,7
2015/7/13 9:22,4.8,7,4.8,7,7.4,6
2015/7/13 9:23,4.3,7,4.8,7,7.1,9
2015/7/13 9:24,4,7,4.3,7,6.4,8
2015/7/13 9:25,3.9,7,4,7,5.1,6
2015/7/13 9:26,3.9,7,3.9,7,8.6,7
2015/7/13 9:27,4.1,7,4.1,7,10.6,7
2015/7/13 9:28,4.2,7,4.2,7,8.4,6
2015/7/13 9:29,4.1,7,4.1,7,7.4,7
2015/7/13 9:30,4.4,7,4.4,7,7.8,6
2015/7/13 9:31,4.6,7,4.6,7,7.8,5
2015/7/13 9:32,4.3,7,4.5,7,3.9,7
2015/7/13 9:33,4.3,7,4.3,7,5.7,6
2015/7/13 9:34,4.5,7,4.5,7,10.8,8
2015/7/13 9:35,4.8,7,4.8,7,7.8,7
2015/7/13 9:37,5.6,8,7.9,8,9.4,8
2015/7/13 9:38,5.2,7,5.5,8,8.3,8
2015/7/13 9:39,4.4,7,5.2,8,6.1,7
2015/7/13 9:40,3.7,7,4.3,8,4.2,9
2015/7/13 9:41,3.4,7,3.7,8,3.8,6
2015/7/13 9:42,3.2,7,3.4,8,5.1,7
2015/7/13 9:43,3,7,3.1,8,4.9,7
2015/7/13 9:45,2.2,9,2.2,9,5.8,8
2015/7/13 9:47,5.5,6,5.5,6,8.1,6
2015/7/13 9:48,4.1,6,5.3,6,6.3,5
2015/7/13 9:49,3.6,7,3.9,6,6.3,6
2015/7/13 9:55,4.4,7,4.4,7,5.8,7
2015/7/13 9:56,3.6,7,4.4,7,5.8,7
2015/7/13 9:58,2.2,6,3,7,3.3,6
2015/7/13 9:59,2.3,6,2.3,7,4.1,6
2015/7/13 10:00,3.4,7,3.4,7,9.4,8
2015/7/13 10:01,3.8,7,3.8,7,9.1,8
2015/7/13 10:03,1.4,8,1.4,8,1.6,6
2015/7/13 10:04,3.9,6,4.2,6,6.5,7
2015/7/13 10:05,4.1,7,4.1,6,7.8,7
2015/7/13 10:06,3.9,8,4.3,7,7.5,9
2015/7/13 10:07,3.4,7,3.8,7,3.9,8
2015/7/13 10:08,3,8,3.4,7,5.2,6
2015/7/13 10:09,3.1,8,3.1,7,4.3,7
2015/7/13 10:10,3.2,8,3.2,7,6,8
2015/7/13 10:11,3.3,8,3.3,7,6.4,7
2015/7/13 10:12,3.3,7,3.3,7,7.8,7
2015/7/13 10:13,3.3,8,3.3,7,6.2,8
2015/7/13 10:18,3.5,7,3.5,7,3.5,7
2015/7/13 10:19,2.9,7,3.5,7,3.5,7
2015/7/13 10:20,2.1,7,2.9,7,3.3,7
2015/7/13 10:21,2.5,7,2.5,7,4.7,7
2015/7/13 10:22,2.9,7,2.9,7,5.6,6
2015/7/13 10:23,2.7,7,3,7,5.1,6
2015/7/13 10:24,2.8,7,2.9,7,6,8
2015/7/13 10:25,2.8,7,2.8,7,5.5,9
2015/7/13 10:26,2.8,7,2.8,7,4.3,9
2015/7/13 10:27,2.9,7,2.9,7,5.8,6
2015/7/13 10:28,2.9,7,2.9,7,6.2,8
2015/7/13 10:29,3.1,7,3.1,7,7.2,6
2015/7/13 10:30,3.3,7,3.3,7,6.7,6
2015/7/13 10:31,3.6,7,3.6,7,9.3,6
2015/7/13 10:32,3.9,6,3.9,7,9,6
2015/7/13 10:33,4.3,6,4.3,6,9.8,5
2015/7/13 10:34,4.2,6,4.2,6,4.4,7
2015/7/13 10:35,4.3,6,4.3,6,6,7
2015/7/13 10:36,4.2,6,4.3,6,5,8
2015/7/13 10:37,4.3,6,4.3,6,6.7,8
2015/7/13 10:38,4.3,6,4.3,6,9.3,9
2015/7/13 10:39,4.2,7,4.3,6,7.4,8
2015/7/13 10:40,4.2,7,4.3,6,7.4,8
2015/7/13 10:41,4,7,4.2,6,7.5,7
2015/7/13 10:42,3.8,7,4,6,7.4,6
2015/7/13 10:43,3.7,7,3.8,6,7.6,6
2015/7/13 10:44,3.9,7,3.9,6,7.1,6
2015/7/13 10:45,4,7,4,6,7.5,6
2015/7/13 10:46,4.3,7,4.3,6,6.8,6
2015/7/13 10:51,1.8,6,1.8,6,2.2,5
2015/7/13 10:52,1,6,1.8,6,2.2,5
2015/7/13 10:53,1.5,6,1.5,6,3.8,6
2015/7/13 10:54,1.6,7,1.7,6,4.3,6
2015/7/13 10:55,1.9,7,1.9,7,5.8,9
2015/7/13 10:56,1.9,8,2,8,4.4,9
2015/7/13 10:57,1.9,8,1.9,8,4.5,7
2015/7/13 10:58,2.1,8,2.1,8,7,8
2015/7/13 10:59,2.1,8,2.1,8,5,6
2015/7/13 11:00,2.3,8,2.3,8,5.4,6
2015/7/13 11:01,2.3,7,2.4,7,4.1,6
2015/7/13 11:02,2.6,7,2.6,7,6.7,6
2015/7/13 11:03,2.6,7,2.6,7,3.9,8
2015/7/13 11:04,2.6,7,2.6,7,3.1,9
2015/7/13 11:05,2.5,7,2.6,7,3.2,8
2015/7/13 11:06,2.5,7,2.5,7,3.8,7
2015/7/13 11:07,2.6,7,2.6,7,5.4,7
2015/7/13 11:08,2.5,7,2.6,7,4.1,7
2015/7/13 11:09,2.6,7,2.6,7,4.1,8
2015/7/13 11:10,2.5,7,2.5,7,5.4,9
2015/7/13 11:11,2.6,7,2.6,7,5.1,7
2015/7/13 11:12,2.4,7,2.6,7,3.5,7
2015/7/13 11:13,2.4,7,2.4,7,3.2,7
2015/7/13 11:14,2.4,7,2.4,7,4.2,6
2015/7/13 11:15,2.5,7,2.5,7,4.4,6
2015/7/13 11:16,2.5,7,2.5,7,3.7,6
2015/7/13 11:17,2.4,7,2.5,7,3.7,7
2015/7/13 11:18,2.5,7,2.5,7,3.3,7
2015/7/13 11:19,2.4,7,2.5,7,3.6,8
2015/7/13 11:20,2.5,7,2.5,7,6.8,7
2015/7/13 11:21,2.6,7,2.6,7,6.9,9
2015/7/13 11:22,2.7,7,2.7,7,6.2,8
2015/7/13 11:23,2.9,7,2.9,7,5.5,8
2015/7/13 11:24,3.2,7,3.2,7,7.5,8
2015/7/13 11:25,3.2,7,3.2,7,5.1,6
2015/7/13 11:26,3.2,7,3.2,7,4.9,8
2015/7/13 11:27,3.3,8,3.3,8,5.5,8
2015/7/13 11:28,3.5,8,3.5,8,10.1,8
2015/7/13 11:29,3.9,8,3.9,8,9,7
2015/7/13 11:30,3.8,8,3.9,8,9.4,8
2015/7/13 11:31,3.9,8,3.9,8,6.9,8
2015/7/13 11:32,4,8,4,8,7.5,9
2015/7/13 11:33,4.4,8,4.4,8,9.4,8
2015/7/13 11:34,4.3,8,4.4,8,8.5,9
2015/7/13 11:35,4.4,8,4.4,8,7.1,9
2015/7/13 11:36,4.5,8,4.5,9,7.6,8
2015/7/13 11:37,4.6,8,4.6,8,5.8,7
2015/7/13 11:38,4.4,8,4.6,8,7,8
2015/7/13 11:39,4.6,8,4.6,8,10.2,8
2015/7/13 11:40,4.6,8,4.8,8,9.8,8
2015/7/13 11:41,4.5,8,4.6,8,5.5,10
2015/7/13 11:42,4.4,8,4.5,8,8.4,6
2015/7/13 11:43,4.3,8,4.4,8,6.3,6
2015/7/13 11:44,4.3,8,4.3,8,8.1,7
2015/7/13 11:45,4.1,7,4.3,8,5.4,8
2015/7/13 11:46,4.2,7,4.2,8,4.3,7
2015/7/13 11:47,3.9,7,4.1,8,3.6,8
2015/7/13 11:48,4,7,4.1,8,7.2,6
2015/7/13 11:49,3.7,7,4,8,5,8
2015/7/13 11:50,3.6,7,3.6,8,7.2,5
2015/7/13 11:51,3.7,7,3.7,8,6.2,6
2015/7/13 11:52,3.7,7,3.8,8,6.9,6
2015/7/13 11:53,3.6,6,3.7,8,6.5,5
2015/7/13 11:54,3.6,6,3.6,8,5.6,7
2015/7/13 11:55,3.7,6,3.7,7,6.9,5
2015/7/13 11:56,3.7,6,3.7,7,6.5,7
2015/7/13 11:57,3.9,6,3.9,7,5.4,5
2015/7/13 11:58,3.8,6,3.9,7,6.2,5
2015/7/13 11:59,4,6,4,6,8.5,8
2015/7/13 12:00,4,6,4.1,6,7.6,7
2015/7/13 12:01,4.1,6,4.1,6,6.1,8
2015/7/13 12:02,4,6,4,6,7.1,7
2015/7/13 12:03,4.1,7,4.1,6,7.1,8
2015/7/13 12:04,4,7,4.1,6,5.8,7
2015/7/13 12:05,4,7,4,6,6.8,6
2015/7/13 12:06,4,7,4,6,5.8,6
2015/7/13 12:07,3.9,7,3.9,6,4.5,7
2015/7/13 12:08,3.9,7,3.9,6,6.5,7
2015/7/13 12:09,3.8,7,4,6,6.7,6
2015/7/13 12:10,3.6,7,3.8,6,3.2,7
2015/7/13 12:11,3.7,7,3.7,7,7.7,6
2015/7/13 12:12,3.8,6,3.9,7,7.1,5
2015/7/13 12:13,3.5,6,3.8,7,4.1,4
2015/7/13 12:14,3.4,6,3.5,7,2.7,6
2015/7/13 12:15,3.3,6,3.4,7,5,7
2015/7/13 12:16,3.3,6,3.3,7,7.7,7
2015/7/13 12:17,3.5,6,3.5,7,7.2,6
2015/7/13 12:18,3.7,6,3.7,7,7.4,6
2015/7/13 12:19,3.7,6,3.7,6,7.2,5
2015/7/13 12:20,3.9,6,3.9,6,6.3,8
2015/7/13 12:21,3.6,6,3.9,6,5.2,7
2015/7/13 12:22,3.6,6,3.7,6,8.1,6
2015/7/13 12:23,3.7,6,3.7,6,5.4,7
2015/7/13 12:24,3.8,7,3.8,6,4.3,6
2015/7/13 12:25,4,7,4,7,7.2,6
2015/7/13 12:26,4.1,7,4.2,7,6.5,5
2015/7/13 12:27,4,6,4.1,7,6.5,5
2015/7/13 12:28,3.7,6,4,7,4.4,5
2015/7/13 12:29,3.6,6,3.7,7,5.4,5
2015/7/13 12:30,3.8,6,3.8,7,6.9,7
2015/7/13 12:31,4,6,4,7,6.5,6
2015/7/13 12:32,3.9,6,4,7,5.6,5
2015/7/13 12:33,3.8,6,3.9,7,5.2,6
2015/7/13 12:34,3.9,6,3.9,7,5.5,6
2015/7/13 12:35,3.9,6,4,7,5.4,6
2015/7/13 12:36,3.7,6,3.8,7,5.6,8
2015/7/13 12:37,3.5,7,3.7,7,3,7
2015/7/13 12:38,3.3,7,3.5,6,3.2,9
2015/7/13 12:39,3.4,7,3.4,6,7.1,7
2015/7/13 12:40,3.4,7,3.5,6,6.9,8
2015/7/13 12:41,3.4,7,3.4,6,7.9,8
2015/7/13 12:42,3.5,7,3.5,6,7.5,8
2015/7/13 12:43,3.5,8,3.5,6,7.7,8
2015/7/13 12:44,3.7,8,3.7,6,9.4,8
2015/7/13 12:45,3.9,8,3.9,8,8.3,8
2015/7/13 12:46,4.1,8,4.1,8,8.1,8
2015/7/13 12:47,4.3,8,4.3,8,7.8,7
2015/7/13 12:48,4.8,8,4.8,8,10,8
2015/7/13 12:49,4.7,8,4.8,8,9.8,7
2015/7/13 12:50,4.8,8,4.8,8,9.2,9
2015/7/13 12:51,4.9,8,4.9,8,9.7,9
2015/7/13 12:52,4.9,8,5,8,10.6,9
2015/7/13 12:53,4.9,8,4.9,8,6.9,9
2015/7/13 12:54,4.9,8,4.9,8,7,8
2015/7/13 12:55,4.8,8,4.9,8,8.7,8
2015/7/13 12:56,5,8,5,8,10,8
2015/7/13 12:57,5.1,8,5.1,8,7.6,8
2015/7/13 12:58,4.9,8,5,8,8.5,5
2015/7/13 12:59,4.9,8,4.9,8,6.2,8
2015/7/13 13:00,4.9,8,4.9,8,9.4,8
2015/7/13 13:01,4.7,8,4.9,8,7.5,8
2015/7/13 13:02,4.9,8,4.9,8,11.1,8
2015/7/13 13:03,5,8,5,8,9.4,8
2015/7/13 13:04,5,8,5,8,9.3,9
2015/7/13 13:05,5,8,5,8,11.1,9
2015/7/13 13:06,4.7,8,5,8,9.1,9
2015/7/13 13:07,4.5,8,4.8,8,6.4,9
2015/7/13 13:08,4.4,8,4.5,8,4.9,7
2015/7/13 13:09,4.4,8,4.4,8,5.2,7
2015/7/13 13:10,4.3,8,4.4,8,5.4,7
2015/7/13 13:11,4.1,8,4.3,8,4.9,8
2015/7/13 13:12,3.8,8,4.2,8,6,8
2015/7/13 13:13,3.6,8,3.8,8,5.1,7
2015/7/13 13:14,3.4,8,3.6,8,6.2,7
2015/7/13 13:15,3.1,8,3.5,8,3.6,7
2015/7/13 13:16,2.9,7,3.1,8,3.8,8
2015/7/13 13:17,2.9,7,2.9,8,6.3,8
2015/7/13 13:18,3.1,8,3.1,8,7.6,9
2015/7/13 13:19,3.3,8,3.3,8,8.6,8
2015/7/13 13:20,3.3,8,3.3,8,6.2,8
2015/7/13 13:21,3.4,8,3.4,8,9.3,8
2015/7/13 13:22,3.6,8,3.6,8,8.9,9
2015/7/13 13:23,3.8,8,3.8,8,6.5,8
2015/7/13 13:24,4,8,4,8,8.3,7
2015/7/13 13:25,4.2,8,4.2,8,5.6,7
2015/7/13 13:26,4.5,8,4.5,8,6.3,8
2015/7/13 13:27,4.4,8,4.5,8,6.4,8
2015/7/13 13:28,4.3,8,4.5,8,4.9,7
2015/7/13 13:29,4.3,8,4.3,8,7.9,5
2015/7/13 13:30,4.4,8,4.4,8,8.1,7
2015/7/13 13:31,4.5,8,4.5,8,9.1,6
2015/7/13 13:32,4.4,7,4.5,8,6.7,7
2015/7/13 13:33,4.4,7,4.4,8,7.9,9
2015/7/13 13:34,4.3,7,4.4,8,9,7
2015/7/13 13:35,4.5,7,4.5,8,7.9,8
2015/7/13 13:36,4.2,7,4.5,8,6.8,7
2015/7/13 13:37,4.3,7,4.3,8,6.1,8
2015/7/13 13:38,4.5,7,4.5,8,6.2,7
2015/7/13 13:39,4.2,7,4.4,8,5.7,7
2015/7/13 13:40,4.1,7,4.2,8,6.8,8
2015/7/13 13:41,3.8,7,4.1,8,4.7,7
2015/7/13 13:42,3.7,7,3.7,7,4.7,8
2015/7/13 13:43,3.7,7,3.7,7,5.6,8
2015/7/13 13:44,3.5,7,3.7,7,6.9,9
2015/7/13 13:45,3.4,7,3.5,7,4.8,7
2015/7/13 13:46,3.4,7,3.4,7,3.7,6
2015/7/13 13:47,3.2,7,3.4,7,4.7,6
2015/7/13 13:48,3.3,7,3.3,7,7.5,6
2015/7/13 13:49,3.5,7,3.5,7,7.8,8
2015/7/13 13:50,3.6,8,3.6,7,7.8,8
2015/7/13 13:51,3.8,7,3.8,8,7.6,8
2015/7/13 13:52,4,7,4,7,8.9,7
2015/7/13 13:53,4.1,7,4.1,7,8.1,7
2015/7/13 13:54,4.1,7,4.1,7,6.3,7
2015/7/13 13:55,4.3,7,4.3,7,7.2,6
2015/7/13 13:56,4.4,7,4.4,7,6.8,6
2015/7/13 13:57,4.5,7,4.5,7,7.7,6
2015/7/13 13:58,4.4,7,4.5,7,6.2,7
2015/7/13 13:59,4.2,7,4.4,7,4.8,5
2015/7/13 14:00,4,7,4.2,7,5,7
2015/7/13 14:01,3.8,7,4,7,5.6,7
2015/7/13 14:02,4,7,4,7,8.6,7
2015/7/13 14:03,3.8,7,4,7,6,6
2015/7/13 14:04,3.8,7,3.9,7,7.2,8
2015/7/13 14:05,3.7,7,3.8,7,5.1,7
2015/7/13 14:06,3.6,7,3.7,7,4.9,8
2015/7/13 14:07,3.7,7,3.7,7,7.8,8
2015/7/13 14:08,3.6,7,3.7,7,6.8,8
2015/7/13 14:09,3.7,7,3.7,7,8.2,6
2015/7/13 14:10,3.8,7,3.8,7,7.8,4
2015/7/13 14:43,1.6,9,1.6,9,3.8,6
2015/7/13 14:45,3,7,3.5,7,3.9,6
2015/7/13 14:46,3.3,6,3.3,7,4.5,6
2015/7/13 14:47,2.9,6,3.3,7,4.1,6
2015/7/13 14:48,2.9,7,2.9,7,4.2,7
2015/7/13 14:49,3.3,7,3.3,7,6.5,6
2015/7/13 14:50,3.9,6,3.9,6,8.7,6
2015/7/13 14:51,4.1,6,4.1,6,7.6,6
2015/7/13 14:52,4,6,4.1,6,6,6
2015/7/13 14:53,3.8,6,4,6,3.5,8
2015/7/13 14:54,3.8,7,3.8,6,6.5,8
2015/7/13 14:55,3.8,7,3.8,6,6.9,8
2015/7/13 14:56,4,7,4,6,6.9,7
2015/7/13 14:57,4,7,4,6,6.3,7
2015/7/13 14:58,4.1,7,4.1,6,5.6,8
2015/7/13 14:59,4,7,4.1,6,6.8,7
2015/7/13 15:00,3.8,7,3.9,6,6,7
2015/7/13 15:01,3.5,7,3.7,6,4.3,6
2015/7/13 15:02,3.5,7,3.6,7,6.5,7
2015/7/13 15:03,3.7,7,3.7,7,6.3,7
2015/7/13 15:04,3.7,7,3.7,7,6.5,9
2015/7/13 15:05,3.7,7,3.7,7,6.2,8
2015/7/13 15:06,3.6,7,3.7,7,6.4,8
2015/7/13 15:07,3.7,7,3.7,7,7.1,8
2015/7/13 15:08,3.8,7,3.8,7,6.4,6
2015/7/13 15:09,4,7,4,7,7.6,6
2015/7/13 15:10,3.9,7,4,7,7.9,6
2015/7/13 15:11,4.1,7,4.1,7,6.8,6
2015/7/13 15:12,4.1,7,4.1,7,4.9,7
2015/7/13 15:13,4,7,4,7,4.9,8
2015/7/13 15:14,4,7,4,7,6.1,6
2015/7/13 15:15,4,7,4,7,5.5,7
2015/7/13 15:16,4,6,4,7,5.7,6
2015/7/13 15:17,3.8,6,4,7,4.7,8
2015/7/13 15:18,3.8,6,3.8,7,6.7,7
2015/7/13 15:19,3.7,6,3.7,7,5.6,5
2015/7/13 15:20,3.6,7,3.7,7,5.8,8
2015/7/13 15:21,3.6,7,3.6,7,7,6
2015/7/13 15:22,3.6,7,3.6,7,6.3,8
2015/7/13 15:23,3.7,7,3.7,7,6.1,7
2015/7/13 15:24,3.7,7,3.8,7,5.6,8
2015/7/13 15:25,3.7,7,3.8,7,5.8,6
2015/7/13 15:26,3.7,7,3.7,6,5.5,7
2015/7/13 15:27,3.8,7,3.8,6,6.2,7
2015/7/13 15:28,4,7,4,7,10.7,8
2015/7/13 15:29,3.9,7,4,7,7.1,7
2015/7/13 15:30,4.1,7,4.1,7,8.6,8
2015/7/13 15:31,4,7,4.1,7,5.2,8
2015/7/13 15:32,4,7,4.1,7,9.5,8
2015/7/13 15:33,4.1,7,4.2,7,11.3,8
2015/7/13 15:34,4.1,8,4.1,7,6.8,8
2015/7/13 15:35,4.2,8,4.2,7,7.9,10
2015/7/13 15:36,4.4,8,4.4,8,8.3,8
2015/7/13 15:37,4.5,8,4.5,8,7.8,8
2015/7/13 15:38,4.2,8,4.5,8,7.2,8
2015/7/13 15:39,4.4,8,4.4,8,7.4,8
2015/7/13 15:40,4.5,8,4.5,8,10.2,9
2015/7/13 15:41,4.7,8,4.7,8,8.6,8
2015/7/13 15:42,4.7,8,4.7,8,7.7,9
2015/7/13 15:43,4.6,8,4.7,8,8.2,7
2015/7/13 15:44,4.7,8,4.7,8,7.2,8
2015/7/13 15:45,4.6,8,4.7,8,7.4,9
2015/7/13 15:46,4.5,8,4.6,8,7,8
2015/7/13 15:47,4.4,8,4.5,8,6.7,8
2015/7/13 15:48,4.6,8,4.6,8,7.8,8
2015/7/13 15:49,4.5,8,4.6,8,7.6,8
2015/7/13 15:50,4.5,8,4.5,8,7.6,8
2015/7/13 15:51,4.3,8,4.4,8,7.2,9
2015/7/13 15:52,4.4,9,4.4,8,7,8
2015/7/13 15:53,4.3,9,4.4,8,6,9
2015/7/13 15:54,4.1,9,4.2,8,5,9
2015/7/13 15:55,4,9,4.1,8,5.2,9
2015/7/13 15:56,4.1,9,4.1,8,7.8,9
2015/7/13 15:57,4.3,9,4.3,8,8.1,8
2015/7/13 15:58,4.2,9,4.3,8,7.5,8
2015/7/13 15:59,4.2,9,4.2,8,8.2,8
2015/7/13 16:00,4,9,4.2,8,6.1,8
2015/7/13 16:01,4,8,4,8,5.7,8
2015/7/13 16:02,3.9,8,4,9,5.4,8
2015/7/13 16:03,3.8,8,3.9,9,4.2,8
2015/7/13 16:04,3.9,8,3.9,9,5.1,8
2015/7/13 16:05,3.8,8,3.9,9,4.5,8
2015/7/13 16:06,3.7,8,3.8,9,5.6,8
2015/7/13 16:07,3.5,8,3.7,9,5.2,10
2015/7/13 16:08,3.3,8,3.5,9,4.3,7
2015/7/13 16:09,3.2,8,3.3,9,6,7
2015/7/13 16:10,3.4,8,3.4,9,6.4,8
2015/7/13 16:11,3.3,8,3.4,8,6.4,7
2015/7/13 16:12,3.3,8,3.3,8,5,5
2015/7/13 16:13,3.3,8,3.3,8,5.1,8
2015/7/13 16:14,3.4,8,3.4,8,7.6,7
2015/7/13 16:15,3.6,8,3.6,8,7,8
2015/7/13 16:16,3.6,8,3.6,8,9.1,8
2015/7/13 16:17,3.8,8,3.8,8,9.1,8
2015/7/13 16:18,3.9,8,3.9,8,6.5,7
2015/7/13 16:19,3.9,8,3.9,8,5.5,7
2015/7/13 16:20,3.7,7,3.9,8,6.7,6
2015/7/13 16:21,3.7,7,3.7,8,5.4,5
2015/7/13 16:22,3.6,7,3.7,8,4.7,8
2015/7/13 16:23,3.7,7,3.7,8,5.4,8
2015/7/13 16:24,3.5,7,3.6,8,5.8,8
2015/7/13 16:25,3.4,7,3.5,8,6.1,8
2015/7/13 16:26,3.4,7,3.5,8,7.2,8
2015/7/13 16:27,3.2,7,3.4,8,4.9,8
2015/7/13 16:28,3.1,7,3.2,8,4.7,7
2015/7/13 16:29,3.1,7,3.1,8,4.7,8
2015/7/13 16:30,3.1,7,3.1,7,5.4,6
2015/7/13 16:31,3,7,3.1,7,5.1,8
2015/7/13 16:32,3.1,7,3.1,7,5.7,6
2015/7/13 16:33,3.2,7,3.2,7,6,6
2015/7/13 16:34,3.3,7,3.3,7,6.5,7
2015/7/13 16:35,3.2,7,3.3,7,4.4,7
2015/7/13 16:36,3.1,7,3.2,7,4.8,6
2015/7/13 16:37,3.1,7,3.1,7,4.8,5
2015/7/13 16:38,3.1,7,3.1,7,6.2,6
2015/7/13 16:39,3.3,7,3.3,7,7.1,5
2015/7/13 16:40,3.4,7,3.4,7,6.9,7
2015/7/13 16:41,3.4,7,3.4,7,4.1,6
2015/7/13 16:42,3.3,7,3.4,7,4.8,9
2015/7/13 16:43,3.2,7,3.3,7,5.8,8
2015/7/13 16:44,3.2,7,3.2,7,6.4,9
2015/7/13 16:45,3.1,7,3.2,7,3.9,8
2015/7/13 16:46,3.1,7,3.1,7,5.2,7
2015/7/13 16:47,3.1,7,3.2,7,3.9,7
2015/7/13 16:48,3,7,3.1,7,4.9,7
2015/7/13 16:49,2.8,7,2.9,7,3.8,6
2015/7/13 16:50,2.7,8,2.8,7,5.7,8
2015/7/13 16:51,2.8,7,2.8,7,6.7,7
2015/7/13 16:52,2.8,7,2.8,7,6.1,7
2015/7/13 16:53,2.8,7,2.9,7,5.6,8
2015/7/13 16:54,2.8,7,2.8,7,6.5,7
2015/7/13 16:55,2.9,8,2.9,7,6.8,8
2015/7/13 16:56,3,8,3,7,4.4,7
2015/7/13 16:57,2.9,8,3,7,5.1,8
2015/7/13 16:58,3,8,3,8,5.1,8
2015/7/13 16:59,3,8,3.1,8,5.2,7
2015/7/13 17:00,3,8,3.1,8,3.2,8
2015/7/13 17:01,2.9,8,2.9,8,4.9,8
2015/7/13 17:02,2.9,8,3,8,6.9,7
2015/7/13 17:03,2.8,8,2.9,8,3.1,9
2015/7/13 17:04,2.7,8,2.8,8,3.3,9
2015/7/13 17:05,2.6,8,2.7,8,3.3,7
2015/7/13 17:06,2.4,8,2.6,8,3.6,9
2015/7/13 17:07,2.3,7,2.3,8,3.1,6
2015/7/13 17:08,2.2,7,2.3,8,3.9,6
2015/7/13 17:09,2.3,7,2.3,8,5,6
2015/7/13 17:10,2.5,7,2.5,8,4.8,6
2015/7/13 17:11,2.6,7,2.7,8,7.2,6
2015/7/13 17:12,2.5,7,2.6,8,4.4,6
2015/7/13 17:13,2.7,7,2.7,8,6,6
2015/7/13 17:14,2.8,7,2.8,7,4.9,6
2015/7/13 17:15,2.9,6,2.9,6,4.5,6
2015/7/13 17:16,3.2,6,3.2,6,5.4,7
2015/7/13 17:17,3.3,6,3.3,6,6.3,7
2015/7/13 17:18,3.4,7,3.4,7,4.7,7
2015/7/13 17:19,3.4,7,3.4,7,5,7
2015/7/13 17:20,3.4,7,3.5,7,5.2,7
2015/7/13 17:21,3.2,7,3.4,7,6.7,7
2015/7/13 17:22,3.3,7,3.3,7,6,6
2015/7/13 17:23,3.2,7,3.3,7,6.2,6
2015/7/13 17:24,3.3,7,3.3,7,4.8,6
2015/7/13 17:25,3.3,7,3.4,7,3.2,8
2015/7/13 17:26,3.2,7,3.3,7,5.5,7
2015/7/13 17:27,3,7,3.2,7,3.5,8
2015/7/13 17:28,2.9,7,3,7,4.3,7
2015/7/13 17:29,2.9,7,2.9,7,5.2,8
2015/7/13 17:30,2.9,7,3,7,5.4,7
2015/7/13 17:31,2.9,7,2.9,7,5.2,7
2015/7/13 17:32,2.9,7,2.9,7,4.9,8
2015/7/13 17:33,3,7,3,7,7.4,5
2015/7/13 17:34,3,7,3,7,7.8,7
2015/7/13 17:35,3.2,7,3.2,7,7.1,8
2015/7/13 17:36,3.3,7,3.3,7,6.5,6
2015/7/13 17:37,3.4,7,3.4,7,5.4,7
2015/7/13 17:38,3.5,7,3.5,7,8.2,7
2015/7/13 17:39,3.5,7,3.5,7,6,6
2015/7/13 17:40,3.4,7,3.5,7,3,7
2015/7/13 17:41,3.4,7,3.4,7,3.1,8
2015/7/13 17:42,3.3,7,3.4,7,3.9,7
2015/7/13 17:43,3.2,7,3.3,7,5.5,6
2015/7/13 17:44,3.2,7,3.3,7,6.5,7
2015/7/13 17:45,3.1,7,3.3,7,4.4,6
2015/7/13 17:46,2.9,7,3.1,7,4.3,7
2015/7/13 17:47,2.9,7,2.9,7,6,5
2015/7/13 17:48,2.9,7,3,7,5.4,6
2015/7/13 17:49,2.8,6,2.9,7,4.5,6
2015/7/13 17:50,2.9,6,2.9,7,4.2,6
2015/7/13 17:51,2.9,6,2.9,7,4.1,5
2015/7/13 17:52,3.1,6,3.1,7,6.2,6
2015/7/13 17:53,2.9,6,3.1,7,3.5,8
2015/7/13 17:54,2.6,6,2.8,7,3.1,6
2015/7/13 17:55,2.5,6,2.6,7,3.1,6
2015/7/13 17:56,2.4,6,2.5,6,3,5
2015/7/13 17:57,2.3,7,2.4,6,3.8,7
2015/7/13 17:58,2.4,7,2.4,6,6.3,8
2015/7/13 17:59,2.3,7,2.4,6,4.9,6
2015/7/13 18:00,2.2,7,2.3,6,3.2,7
2015/7/13 18:01,2.2,7,2.2,6,3.6,8
2015/7/13 18:02,2.1,7,2.2,6,4.3,8
2015/7/13 18:03,2.1,7,2.1,6,2.7,8
2015/7/13 18:04,2.2,7,2.2,6,4.4,6
2015/7/13 18:05,2.2,7,2.2,6,3.2,8
2015/7/13 18:06,2.3,7,2.3,7,4.7,6
2015/7/13 18:07,2.4,7,2.4,7,3.7,7
2015/7/13 18:08,2.3,7,2.4,7,3.7,8
2015/7/13 18:09,2.3,7,2.3,7,6.4,10
2015/7/13 18:10,2.5,7,2.5,7,5.8,6
2015/7/13 18:11,2.6,7,2.6,7,4.4,7
2015/7/13 18:12,2.7,7,2.7,7,5.5,7
2015/7/13 18:13,2.9,7,2.9,7,6,7
2015/7/13 18:14,3,7,3,7,4.8,7
2015/7/13 18:15,3,7,3,7,4.4,6
2015/7/13 18:16,3,7,3.1,7,4.9,8
2015/7/13 18:17,3.2,7,3.2,7,6.3,8
2015/7/13 18:18,3.2,7,3.2,7,6,9
2015/7/13 18:19,3.2,7,3.3,7,4.2,7
2015/7/13 18:20,3,7,3.2,7,3.8,8
2015/7/13 18:21,2.9,7,3,7,3.5,7
2015/7/13 18:22,2.8,7,2.9,7,3.5,9
2015/7/13 18:23,2.7,7,2.7,7,3.8,6
2015/7/13 18:24,2.5,7,2.7,7,2.6,6
2015/7/13 18:25,2.5,7,2.5,7,3.2,8
2015/7/13 18:26,2.5,7,2.5,7,5,6
2015/7/13 18:27,2.4,7,2.5,7,5.6,6
2015/7/13 18:28,2.5,7,2.5,7,4.8,6
2015/7/13 18:29,2.4,7,2.5,7,4.4,7
2015/7/13 18:30,2.4,7,2.4,7,3.8,4
2015/7/13 18:31,2.4,6,2.4,7,4.7,5
2015/7/13 18:32,2.5,6,2.5,7,4.1,7
2015/7/13 18:33,2.5,6,2.5,7,4.8,5
2015/7/13 18:34,2.6,6,2.6,6,3.7,5
2015/7/13 18:35,2.7,6,2.7,6,5.4,6
2015/7/13 18:36,2.7,6,2.7,6,4.4,6
2015/7/13 18:37,2.6,6,2.7,6,3.5,7
2015/7/13 18:38,2.4,6,2.6,6,2.7,6
2015/7/13 18:39,2.5,6,2.5,6,4.7,7
2015/7/13 18:40,2.6,6,2.6,6,4.9,7
2015/7/13 18:41,2.5,6,2.6,6,4.5,7
2015/7/13 18:42,2.5,6,2.5,6,4.2,6
2015/7/13 18:43,2.6,6,2.6,6,4.2,6
2015/7/13 18:44,2.7,6,2.7,6,5.6,6
2015/7/13 18:45,2.5,6,2.7,6,3,6
2015/7/13 18:46,2.6,6,2.6,6,5.8,6
2015/7/13 18:47,2.7,6,2.7,6,6.2,6
2015/7/13 18:48,2.8,6,2.8,6,5,6
2015/7/13 18:49,2.8,6,2.8,6,2.7,7
2015/7/13 18:50,2.7,6,2.7,6,4.5,7
2015/7/13 18:51,2.7,6,2.7,6,3.1,6
2015/7/13 18:52,2.8,6,2.8,6,7.4,6
2015/7/13 18:53,2.8,6,2.8,6,5.8,6
2015/7/13 18:54,2.6,6,2.8,6,2.7,7
2015/7/13 18:55,2.5,6,2.6,6,1.4,6
2015/7/13 18:56,2.3,7,2.5,6,3.5,8
2015/7/13 18:57,2.2,7,2.3,6,3.9,9
2015/7/13 18:58,2.2,7,2.2,6,4.5,8
2015/7/13 18:59,2.3,7,2.3,6,6,6
2015/7/13 19:00,2.3,7,2.3,6,3.9,5
2015/7/13 19:01,2.2,7,2.3,6,3.1,8
2015/7/13 19:02,2.2,6,2.3,6,5,6
2015/7/13 19:03,2.1,6,2.1,6,3.7,6
2015/7/13 19:04,2.2,6,2.2,6,4.3,6
2015/7/13 19:05,2.4,6,2.4,6,5.8,6
2015/7/13 19:06,2.6,6,2.6,6,5.7,6
2015/7/13 19:07,2.6,6,2.6,6,4.9,6
2015/7/13 19:08,2.7,6,2.7,6,6,6
2015/7/13 19:09,2.8,6,2.8,6,6,6
2015/7/13 19:10,2.8,6,2.9,6,4.5,6
2015/7/13 19:11,3,6,3,6,4.4,5
2015/7/13 19:12,3.2,6,3.2,6,7.5,5
2015/7/13 19:13,3.3,6,3.4,6,6.4,6
2015/7/13 19:14,3.3,6,3.3,6,3.7,6
2015/7/13 19:15,3.3,6,3.4,6,4.3,6
2015/7/13 19:16,3.3,6,3.3,6,5.6,6
2015/7/13 19:17,3.2,6,3.3,6,4.3,4
2015/7/13 19:18,3.1,6,3.2,6,4.9,8
2015/7/13 19:19,3.1,6,3.1,6,6.1,6
2015/7/13 19:20,3.2,6,3.2,6,4.7,5
2015/7/13 19:21,3.2,6,3.2,6,3.8,7
2015/7/13 19:22,2.9,6,3.2,6,4.1,5
2015/7/13 19:23,2.9,6,2.9,6,5.1,6
2015/7/13 19:24,3,6,3,6,5.4,5
2015/7/13 19:25,3.1,6,3.1,6,6.3,5
2015/7/13 19:26,3,6,3.1,6,5,5
2015/7/13 19:27,2.9,6,3,6,2.1,8
2015/7/13 19:28,2.9,6,2.9,6,4.4,6
2015/7/13 19:29,2.8,6,2.9,6,3.7,7
2015/7/13 19:30,2.8,6,2.8,6,4.2,6
2015/7/13 19:31,2.7,6,2.7,6,4.5,7
2015/7/13 19:32,2.7,6,2.7,6,3.9,5
2015/7/13 19:33,2.8,6,2.8,6,5.8,6
2015/7/13 19:34,2.7,6,2.8,6,4.5,6
2015/7/13 19:35,2.5,6,2.6,6,3.1,5
2015/7/13 19:36,2.5,6,2.5,6,3.2,5
2015/7/13 19:37,2.6,6,2.6,6,3,5
2015/7/13 19:38,2.5,6,2.6,6,3.7,6
2015/7/13 19:39,2.6,6,2.6,6,4.5,5
2015/7/13 19:40,2.7,6,2.7,6,6.2,5
2015/7/13 19:41,2.8,5,2.8,6,5.2,6
2015/7/13 19:42,2.9,5,2.9,5,4.7,6
2015/7/13 19:43,2.8,6,2.9,5,6,8
2015/7/13 19:44,2.8,6,2.8,5,3.8,5
2015/7/13 19:45,2.9,5,2.9,5,3.8,4
2015/7/13 19:46,2.8,5,2.9,5,4.4,4
2015/7/13 19:47,2.9,5,2.9,5,5.6,4
2015/7/13 19:48,3,6,3,6,4.7,7
2015/7/13 19:49,3,6,3,6,3.7,6
2015/7/13 19:50,2.9,6,3,6,4.8,5
2015/7/13 19:51,2.7,6,2.9,6,3.2,5
2015/7/13 19:52,2.8,6,2.8,6,5.1,6
2015/7/13 19:53,2.8,6,2.8,6,4.3,6
2015/7/13 19:54,2.7,6,2.8,6,4.8,6
2015/7/13 19:55,2.7,6,2.8,6,5,6
2015/7/13 19:56,2.8,6,2.8,6,5.1,5
2015/7/13 19:57,2.8,6,2.8,6,3.7,5
2015/7/13 19:58,2.8,6,2.9,6,5,6
2015/7/13 19:59,2.8,5,2.8,6,3.3,5
2015/7/13 20:00,2.7,6,2.8,6,4.1,5
2015/7/13 20:01,2.7,6,2.7,6,3,7
2015/7/13 20:02,2.6,6,2.7,6,3.8,6
2015/7/13 20:03,2.5,6,2.6,6,2.2,6
2015/7/13 20:04,2.4,6,2.5,6,2.6,7
2015/7/13 20:05,2.3,6,2.4,6,3.3,4
2015/7/13 20:06,2.1,6,2.3,6,2.6,4
2015/7/13 20:07,2.1,5,2.1,6,3.1,5
2015/7/13 20:08,1.9,5,2.1,6,2.6,5
2015/7/13 20:09,1.8,5,1.9,5,2.9,5
2015/7/13 20:10,1.8,5,1.8,6,3.3,4
2015/7/13 20:11,1.9,5,1.9,6,3.3,5
2015/7/13 20:12,1.8,5,1.9,6,3.5,4
2015/7/13 20:13,1.9,5,1.9,6,3.5,2
2015/7/13 20:14,2,4,2,6,3.7,4
2015/7/13 20:15,2.1,4,2.1,6,4.3,5
2015/7/13 20:16,2.1,5,2.1,6,3,4
2015/7/13 20:17,2.2,5,2.2,5,3.7,6
2015/7/13 20:18,2.2,5,2.2,5,3.2,5
2015/7/13 20:19,2.3,5,2.3,5,3,5
2015/7/13 20:20,2.3,5,2.3,5,4.1,5
2015/7/13 20:21,2.3,5,2.3,5,4.5,5
2015/7/13 20:22,2.4,5,2.4,5,4.5,5
2015/7/13 20:23,2.3,5,2.4,5,3.1,4
2015/7/13 20:24,2.4,5,2.4,5,3.8,5
2015/7/13 20:25,2.4,5,2.4,5,4.1,3
2015/7/13 20:26,2.5,5,2.5,5,4.3,3
2015/7/13 20:27,2.4,5,2.5,5,3.5,4
2015/7/13 20:28,2.4,4,2.4,5,2.4,3
2015/7/13 20:29,2.4,4,2.4,5,3.3,3
2015/7/13 20:30,2.3,4,2.4,5,3.6,5
2015/7/13 20:31,2.2,4,2.3,5,3,4
2015/7/13 20:32,2.1,4,2.2,5,2,5
2015/7/13 20:33,2,4,2.1,5,1.8,4
2015/7/13 20:34,2,4,2,5,2.4,5
2015/7/13 20:35,2,4,2,5,4.4,5
2015/7/13 20:36,1.9,4,2,5,3.5,5
2015/7/13 20:37,2,4,2,5,2.7,5
2015/7/13 20:38,2,5,2,4,3,6
2015/7/13 20:39,2,5,2,4,2.9,4
2015/7/13 20:40,2,4,2,4,3.1,4
2015/7/13 20:41,2,4,2,4,2.7,4
2015/7/13 20:42,2.1,4,2.1,4,2.5,5
2015/7/13 20:43,2.1,4,2.1,4,2.6,4
2015/7/13 20:44,2.1,4,2.1,4,2.5,5
2015/7/13 20:45,2,4,2.1,4,3.6,5
2015/7/13 20:46,2,4,2,4,4.3,4
2015/7/13 20:47,1.9,4,2,4,3.5,4
2015/7/13 20:48,2,4,2,4,2.7,5
2015/7/13 20:49,2.1,4,2.1,4,3.9,5
2015/7/13 20:50,2.1,4,2.1,4,3.9,6
2015/7/13 20:51,2.1,4,2.1,4,3.2,5
2015/7/13 20:52,2.2,4,2.2,5,3.9,4
2015/7/13 20:53,2.3,5,2.3,4,3.9,5
2015/7/13 20:54,2.4,5,2.4,5,2.9,5
2015/7/13 20:55,2.4,5,2.4,5,2.5,4
2015/7/13 20:56,2.3,4,2.4,5,4.2,3
2015/7/13 20:57,2.3,4,2.3,5,4.3,3
2015/7/13 20:58,2.5,4,2.5,4,5.2,5
2015/7/13 20:59,2.5,4,2.5,4,4.1,5
2015/7/13 21:00,2.6,4,2.6,4,3.8,3
2015/7/13 21:01,2.6,4,2.6,4,5,5
2015/7/13 21:02,2.5,4,2.6,4,2.2,4
2015/7/13 21:03,2.5,4,2.5,4,3,5
2015/7/13 21:04,2.5,4,2.5,4,3.1,5
2015/7/13 21:05,2.5,4,2.5,4,3.1,3
2015/7/13 21:06,2.6,4,2.6,4,3.7,4
2015/7/13 21:07,2.5,4,2.6,4,2.2,3
2015/7/13 21:08,2.3,4,2.5,4,2.6,3
2015/7/13 21:09,2.3,4,2.3,4,3.3,4
2015/7/13 21:10,2.2,4,2.2,4,2.9,3
2015/7/13 21:11,2.1,3,2.1,4,3.1,3
2015/7/13 21:12,2.1,3,2.1,4,3.2,3
2015/7/13 21:13,2.1,3,2.1,4,2.6,4
2015/7/13 21:14,2.1,3,2.1,4,2.6,4
2015/7/13 21:15,2,3,2,4,2.4,4
2015/7/13 21:16,1.9,3,2,4,2.5,3
2015/7/13 21:17,1.9,3,2,4,2.2,2
2015/7/13 21:18,2,3,2,4,3,4
2015/7/13 21:19,1.9,3,2,4,2.9,3
2015/7/13 21:20,1.9,3,1.9,4,2.7,3
2015/7/13 21:21,1.8,3,1.8,3,2.1,3
2015/7/13 21:22,1.7,3,1.8,3,1.9,5
2015/7/13 21:23,1.7,3,1.7,3,2.4,3
2015/7/13 21:24,1.7,3,1.7,3,3.2,3
2015/7/13 21:25,1.8,3,1.8,3,3.2,3
2015/7/13 21:26,1.8,3,1.8,3,3,4
2015/7/13 21:27,1.8,3,1.8,3,2.4,4
2015/7/13 21:28,1.7,3,1.8,3,1.5,3
2015/7/13 21:29,1.7,3,1.7,3,2.4,5
2015/7/13 21:30,1.6,3,1.7,3,2,3